Hallock, MN

7:26 PM CDT on March 25, 2017 (GMT -0500)
Hallock Municipal

Weather History for KHCO - October, 2012

Change the Weather History Date:

Saturday, October 20, 2012

  Actual Average Record
Temperature  
Mean Temperature 44 °F -  
Max Temperature 46 °F 53 °F 77 °F (1953)
Min Temperature 41 °F 30 °F 15 °F (2002)
Degree Days  
Heating Degree Days 22    
Moisture  
Dew Point 43 °F    
Average Humidity 96    
Maximum Humidity 100    
Minimum Humidity 87    
Precipitation  
Precipitation 0.00 in - - ()
Sea Level Pressure  
Sea Level Pressure 29.65 in    
Wind  
Wind Speed 9 mph (South)    
Max Wind Speed 25 mph    
Max Gust Speed 30 mph    
Visibility 9 miles    
Events      
Averages and records for this station are not official NWS values.
T = Trace of Precipitation, MM = Missing Value Source: NWS Daily Summary

Daily Weather History Graph

Daily Weather History Graph

Search for Another Location

Airport or City:

Trip Planner

Search our weather history database for the weather conditions in past years. The results will help you decide how hot, cold, wet, or windy it might be!

Date:

Astronomy

Oct. 20, 2012 Rise Set
Actual Time 7:56 AM CDT 6:27 PM CDT
Civil Twilight 7:24 AM CDT 6:59 PM CDT
Nautical Twilight 6:47 AM CDT 7:36 PM CDT
Astronomical Twilight 6:11 AM CDT 8:12 PM CDT
Moon 1:48 PM CDT (10/20) 11:01 PM CDT (10/20)
Length of Visible Light 11h 35m
Length of Day
10h 31m
Waxing Crescent, 34% of the Moon is Illuminated
Oct 20
Waxing Crescent
Oct 21
First Quarter
Oct 29
Full
Nov 6
Last Quarter
Nov 13
New

Hourly Weather History & Observations

Time (CDT) Temp. Windchill Dew Point Humidity Pressure Visibility Wind Dir Wind Speed Gust Speed Precip Events Conditions
12:14 AM 41.0 °F 39.0 °F 41.0 °F 100% 29.71 in 7.0 mi SW 3.5 mph - N/A   Overcast
12:34 AM 41.0 °F 39.0 °F 41.0 °F 100% 29.70 in 5.0 mi West 3.5 mph - N/A   Overcast
12:53 AM 41.0 °F 39.0 °F 41.0 °F 100% 29.70 in 7.0 mi West 3.5 mph - N/A   Overcast
1:14 AM 41.0 °F - 41.0 °F 100% 29.71 in 7.0 mi Calm Calm - N/A   Overcast
1:34 AM 42.8 °F 41.1 °F 42.8 °F 100% 29.72 in 5.0 mi WSW 3.5 mph - N/A   Overcast
1:53 AM 42.8 °F - 42.8 °F 100% 29.72 in 7.0 mi Calm Calm - N/A   Overcast
2:14 AM 41.0 °F - 41.0 °F 100% 29.72 in 7.0 mi Calm Calm - N/A   Overcast
2:34 AM 42.8 °F - 42.8 °F 100% 29.71 in 7.0 mi Calm Calm - N/A   Overcast
2:53 AM 42.8 °F 41.1 °F 42.8 °F 100% 29.71 in 7.0 mi SE 3.5 mph - N/A   Overcast
3:14 AM 41.0 °F - 41.0 °F 100% 29.71 in 7.0 mi Calm Calm - N/A   Mostly Cloudy
3:34 AM 41.0 °F 39.0 °F 41.0 °F 100% 29.71 in 7.0 mi SSW 3.5 mph - N/A   Overcast
3:53 AM 41.0 °F 39.0 °F 41.0 °F 100% 29.70 in 2.5 mi South 3.5 mph - N/A   Overcast
4:14 AM 41.0 °F 39.0 °F 41.0 °F 100% 29.69 in 5.0 mi SSE 3.5 mph - N/A   Overcast
4:34 AM 41.0 °F 38.0 °F 41.0 °F 100% 29.69 in 5.0 mi South 4.6 mph - N/A   Overcast
4:53 AM 41.0 °F 36.4 °F 41.0 °F 100% 29.69 in 5.0 mi SSE 6.9 mph - N/A   Overcast
5:14 AM 41.0 °F 35.8 °F 41.0 °F 100% 29.67 in 7.0 mi SSE 8.1 mph - N/A   Overcast
5:34 AM 41.0 °F 36.4 °F 41.0 °F 100% 29.67 in 7.0 mi South 6.9 mph - N/A   Overcast
5:54 AM 41.0 °F 36.4 °F 41.0 °F 100% 29.68 in 7.0 mi South 6.9 mph - N/A   Overcast
6:14 AM 41.0 °F 34.7 °F 41.0 °F 100% 29.68 in 10.0 mi South 10.4 mph - N/A   Overcast
6:34 AM 41.0 °F 34.7 °F 41.0 °F 100% 29.67 in 10.0 mi South 10.4 mph - N/A   Overcast
6:54 AM 41.0 °F 34.7 °F 41.0 °F 100% 29.67 in 10.0 mi South 10.4 mph - N/A   Overcast
7:14 AM 41.0 °F 35.2 °F 41.0 °F 100% 29.67 in 10.0 mi South 9.2 mph - N/A   Overcast
7:34 AM 41.0 °F 34.7 °F 41.0 °F 100% 29.67 in 10.0 mi South 10.4 mph - N/A   Overcast
7:54 AM 41.0 °F 35.2 °F 41.0 °F 100% 29.68 in 7.0 mi South 9.2 mph - N/A   Overcast
8:14 AM 41.0 °F 34.3 °F 41.0 °F 100% 29.68 in 5.0 mi South 11.5 mph - N/A   Overcast
8:34 AM 41.0 °F 34.3 °F 41.0 °F 100% 29.68 in 10.0 mi South 11.5 mph - N/A   Overcast
8:54 AM 42.8 °F 35.1 °F 41.0 °F 93% 29.68 in 10.0 mi South 16.1 mph - N/A   Overcast
9:13 AM 42.8 °F 35.8 °F 41.0 °F 93% 29.68 in 10.0 mi South 13.8 mph - N/A   Overcast
9:34 AM 42.8 °F 35.4 °F 41.0 °F 93% 29.67 in 10.0 mi South 15.0 mph 19.6 mph N/A   Overcast
9:54 AM 42.8 °F 34.8 °F 41.0 °F 93% 29.67 in 10.0 mi South 17.3 mph - N/A   Overcast
10:14 AM 42.8 °F 35.1 °F 41.0 °F 93% 29.66 in 10.0 mi South 16.1 mph - N/A   Overcast
10:34 AM 42.8 °F 35.1 °F 41.0 °F 93% 29.67 in 10.0 mi South 16.1 mph 21.9 mph N/A   Overcast
10:54 AM 42.8 °F 34.5 °F 42.8 °F 100% 29.66 in 10.0 mi South 18.4 mph 23.0 mph N/A   Overcast
11:14 AM 42.8 °F 34.0 °F 42.8 °F 100% 29.65 in 10.0 mi South 20.7 mph - N/A   Overcast
11:34 AM 44.6 °F 36.4 °F 42.8 °F 93% 29.64 in 10.0 mi South 20.7 mph - N/A   Overcast
11:54 AM 44.6 °F 36.6 °F 42.8 °F 93% 29.66 in 10.0 mi South 19.6 mph 26.5 mph N/A   Overcast
12:14 PM 44.6 °F 36.9 °F 42.8 °F 93% 29.65 in 10.0 mi South 18.4 mph 26.5 mph N/A   Overcast
12:34 PM 44.6 °F 36.4 °F 42.8 °F 93% 29.64 in 10.0 mi South 20.7 mph - N/A   Overcast
12:54 PM 44.6 °F 36.6 °F 42.8 °F 93% 29.64 in 10.0 mi South 19.6 mph 24.2 mph N/A   Overcast
1:14 PM 46.4 °F 38.7 °F 42.8 °F 87% 29.63 in 10.0 mi South 20.7 mph - N/A   Overcast
1:34 PM 46.4 °F 38.7 °F 42.8 °F 87% 29.63 in 10.0 mi South 20.7 mph - N/A   Overcast
1:54 PM 46.4 °F 38.5 °F 42.8 °F 87% 29.62 in 10.0 mi SSE 21.9 mph - N/A   Overcast
2:14 PM 46.4 °F 38.5 °F 44.6 °F 93% 29.61 in 10.0 mi South 21.9 mph - N/A   Overcast
2:34 PM 46.4 °F 38.3 °F 44.6 °F 93% 29.62 in 10.0 mi SSE 23.0 mph - N/A   Overcast
2:54 PM 46.4 °F 38.5 °F 44.6 °F 93% 29.61 in 10.0 mi SSE 21.9 mph 26.5 mph N/A   Overcast
3:14 PM 46.4 °F 38.3 °F 44.6 °F 93% 29.61 in 10.0 mi SSE 23.0 mph - N/A   Overcast
3:34 PM 46.4 °F 37.9 °F 44.6 °F 93% 29.60 in 10.0 mi SSE 25.3 mph 29.9 mph N/A   Overcast
3:54 PM 46.4 °F 38.1 °F 44.6 °F 93% 29.60 in 10.0 mi SSE 24.2 mph - N/A   Overcast
4:14 PM 46.4 °F 38.7 °F 44.6 °F 93% 29.59 in 10.0 mi SSE 20.7 mph - N/A   Overcast
4:34 PM 46.4 °F 39.2 °F 44.6 °F 93% 29.60 in 10.0 mi SSE 18.4 mph 27.6 mph N/A   Overcast
4:54 PM 46.4 °F 38.5 °F 44.6 °F 93% 29.61 in 10.0 mi South 21.9 mph - N/A   Overcast
5:14 PM 46.4 °F 39.5 °F 44.6 °F 93% 29.60 in 10.0 mi SSE 17.3 mph - N/A   Mostly Cloudy
5:34 PM 46.4 °F 39.2 °F 44.6 °F 93% 29.60 in 10.0 mi SSE 18.4 mph - N/A   Overcast
5:54 PM 46.4 °F 39.5 °F 44.6 °F 93% 29.61 in 10.0 mi South 17.3 mph - N/A   Overcast
6:14 PM 46.4 °F 40.4 °F 44.6 °F 93% 29.61 in 10.0 mi South 13.8 mph - N/A   Overcast
6:34 PM 46.4 °F 40.4 °F 44.6 °F 93% 29.62 in 10.0 mi South 13.8 mph - N/A   Scattered Clouds
6:54 PM 46.4 °F 40.4 °F 44.6 °F 93% 29.62 in 10.0 mi South 13.8 mph - N/A   Scattered Clouds
7:14 PM 46.4 °F 40.4 °F 44.6 °F 93% 29.61 in 10.0 mi SSE 13.8 mph - N/A   Mostly Cloudy
7:34 PM 46.4 °F 41.5 °F 44.6 °F 93% 29.62 in 10.0 mi SSE 10.4 mph - N/A   Scattered Clouds
7:54 PM 44.6 °F 39.2 °F 42.8 °F 93% 29.61 in 10.0 mi SSE 10.4 mph - N/A   Mostly Cloudy
8:14 PM 44.6 °F 39.7 °F 42.8 °F 93% 29.62 in 10.0 mi SSE 9.2 mph - N/A   Scattered Clouds
8:34 PM 44.6 °F 39.2 °F 42.8 °F 93% 29.62 in 10.0 mi SSE 10.4 mph - N/A   Mostly Cloudy
8:54 PM 44.6 °F 39.2 °F 42.8 °F 93% 29.63 in 10.0 mi SSE 10.4 mph - N/A   Scattered Clouds
9:14 PM 44.6 °F 38.8 °F 42.8 °F 93% 29.63 in 10.0 mi SSE 11.5 mph - N/A   Mostly Cloudy
9:34 PM 44.6 °F 39.2 °F 42.8 °F 93% 29.64 in 10.0 mi SSE 10.4 mph - N/A   Scattered Clouds
9:54 PM 44.6 °F 39.2 °F 42.8 °F 93% 29.64 in 10.0 mi SSE 10.4 mph - N/A   Clear
10:14 PM 44.6 °F 38.8 °F 42.8 °F 93% 29.63 in 10.0 mi SSE 11.5 mph - N/A   Scattered Clouds
10:33 PM 44.6 °F 38.8 °F 42.8 °F 93% 29.64 in 10.0 mi SSE 11.5 mph - N/A   Scattered Clouds
10:54 PM 44.6 °F 38.4 °F 44.6 °F 100% 29.65 in 10.0 mi South 12.7 mph - N/A   Scattered Clouds
11:33 PM 46.4 °F 41.1 °F 44.6 °F 93% 29.64 in 10.0 mi SSE 11.5 mph - N/A   Clear
11:54 PM 46.4 °F 40.4 °F 44.6 °F 93% 29.63 in 10.0 mi SSE 13.8 mph - N/A   Clear